Lid_Strength_Index
-0 -1 -1 -1 -2 -2 -2 -2 -3 -3 -3 -2 -3 -2 -2 -2 -2 -2 -2 -2 -2 -2 -2 -2 -2 -2 1
-0 1 0 -0 -1 -1 -1 -1 -2 -2 -2 -2 -1 -1 -1 -2 -2 -2 -2 -1 -2 -1 -2 -2 -1 -1 -0
-0 1 1 0 0 0 -0 -0 -0 -0 0 -0 -0 -0 -1 -1 -1 -1 -1 -1 -1 -1 -1 -1 -1 -0 -1
-0 -0 -0 -1 -1 -1 -1 -0 -0 0 0 0 1 0 -0 -1 -1 -1 -0 -1 1 2 2 0 1 1 2
0 -0 -0 -0 -0 -0 -1 -0 -1 0 2 2 3 3 3 2 3 2 2 2 3 3 3 3 3 3 3
0 -0 0 -0 -0 -0 -1 -1 -1 0 2 2 3 4 4 3 4 3 3 4 4 4 4 4 3 3 3
0 1 0 -0 0 0 -0 -0 -1 0 1 2 2 4 3 3 2 3 4 5 5 5 5 5 5 4 4
0 1 1 1 0 0 -0 -0 0 -0 1 1 2 2 3 3 3 3 4 6 7 7 7 6 6 6 6
1 1 1 1 1 1 1 0 -0 -0 1 1 3 3 4 3 3 4 5 7 9 8 9 9 9 8 8
2 1 1 1 0 1 1 0 0 -0 1 2 3 3 3 4 5 7 7 8 9 11 11 12 12 11 11
1 1 1 1 1 1 1 0 1 0 0 2 3 4 5 5 7 8 9 9 10 11 12 12 13 13 13
1 2 2 2 2 1 1 0 0 1 1 2 3 5 5 6 8 9 10 9 10 11 12 13 14 14 13
3 3 4 3 3 2 1 1 0 0 1 1 3 5 5 7 8 9 10 11 11 12 13 14 15 14 15
2 3 4 5 4 3 3 3 1 0 0 1 3 4 5 7 7 9 10 11 12 12 13 14 17 17 16
3 4 4 5 5 5 4 2 3 3 2 1 3 4 4 5 7 9 10 11 12 12 12 12 15 17 18
4 4 4 5 6 6 5 4 3 3 4 3 3 4 4 4 6 9 9 10 12 13 12 11 11 15 17